Wind_Speed
34 34 35 34 33 32 32 33 33 31 31 30 29 28 27 26 25 24 22 23 23 23 21 20 20 20 19 19 20 20 19 19 18 18 18 17 17 17 16 16 15 14 13
35 36 36 35 35 35 34 34 33 32 32 32 30 28 27 26 26 25 24 24 23 23 22 22 21 21 20 19 19 20 20 20 20 20 20 20 19 19 19 18 17 17 16
37 37 37 36 36 36 35 35 34 34 33 33 31 29 28 27 27 26 26 24 24 24 23 22 22 21 21 21 20 20 20 20 21 21 21 21 21 21 21 21 20 19 19
38 38 38 38 37 37 36 36 35 35 35 34 33 32 30 29 28 27 26 25 24 24 23 23 23 22 22 21 21 20 20 20 21 21 22 22 23 23 23 24 23 23 21
38 39 39 38 37 36 36 35 34 34 35 35 35 33 31 29 28 27 27 26 25 24 24 23 23 22 21 20 20 19 19 20 20 20 20 21 22 22 22 23 25 25 24
39 39 38 36 37 37 36 35 33 33 33 34 34 33 31 30 29 28 28 27 26 25 24 24 23 21 20 19 19 18 18 18 18 19 19 19 20 21 22 23 24 26 26
39 38 38 37 37 36 35 33 32 32 31 32 33 33 32 31 30 30 29 28 27 26 25 24 23 21 20 19 17 16 16 16 16 17 17 18 19 20 21 22 23 24 26
39 39 39 37 36 35 34 33 33 32 31 32 32 33 32 31 31 31 30 30 29 27 26 25 24 23 21 19 18 16 15 15 15 15 15 15 17 18 19 21 22 23 25
39 39 39 38 37 36 36 35 34 34 33 33 33 34 33 31 32 31 31 30 30 29 28 27 26 24 22 20 18 17 16 14 14 14 13 13 14 15 16 18 21 22 24
40 40 40 39 38 38 37 36 35 35 35 34 34 34 34 32 32 31 32 32 32 31 30 29 27 26 24 22 20 18 17 16 14 13 13 12 12 13 14 15 18 21 22
43 42 41 41 41 40 39 38 37 37 36 36 36 36 35 35 34 33 34 33 33 33 32 31 30 28 27 25 22 21 20 18 16 15 13 12 12 13 13 14 15 18 20
44 43 43 42 42 42 42 41 40 40 39 38 39 38 37 36 38 37 36 35 35 35 34 33 33 31 29 27 25 24 22 20 19 17 16 14 13 13 13 14 15 16 18
45 44 44 43 42 43 43 43 43 43 43 42 42 41 40 39 39 39 39 37 37 37 36 36 35 34 32 30 28 26 24 23 21 19 18 16 15 14 14 14 15 17 18
44 44 44 43 43 43 44 44 44 45 45 46 45 45 44 42 42 42 41 40 39 38 38 38 37 36 34 32 31 29 27 25 23 21 20 18 17 16 15 15 15 16 18
45 45 45 44 43 44 45 46 47 47 47 47 48 48 47 46 46 45 44 43 42 41 39 39 39 39 37 36 34 32 31 28 26 24 22 20 19 18 17 16 16 17 18
46 47 47 47 47 47 47 48 49 50 51 51 51 51 51 50 51 49 48 47 46 44 42 41 40 39 39 38 37 36 34 31 29 27 25 23 21 20 19 18 18 18 19
49 49 50 51 51 51 51 50 51 51 52 54 55 55 54 54 54 54 52 51 49 47 45 44 43 42 41 40 40 39 37 34 32 30 27 25 24 22 21 20 20 20 20
51 52 53 53 54 54 54 54 54 54 54 55 56 57 57 57 56 56 56 55 54 52 49 47 45 43 43 42 41 41 39 38 35 32 30 28 26 24 23 22 21 21 21
51 52 53 54 55 55 56 56 55 56 56 56 57 59 60 61 60 59 58 57 57 56 54 51 49 47 45 44 43 41 41 40 38 35 32 30 28 26 24 23 22 22 22
51 52 53 54 55 55 55 55 56 57 56 57 58 59 61 62 63 62 62 60 59 59 58 56 53 49 49 47 45 43 42 41 40 37 35 32 30 27 25 24 23 23 23
50 50 51 51 51 52 53 54 55 55 56 56 57 58 60 62 63 65 64 63 62 61 61 58 57 54 52 49 48 45 44 43 41 40 37 35 32 29 27 25 25 24 23
48 48 48 48 48 49 51 52 52 52 53 54 55 56 57 59 60 64 65 66 65 63 62 62 60 58 56 52 51 48 45 45 43 42 40 37 33 30 28 27 25 25 24
46 44 44 44 44 44 45 47 47 48 48 50 52 53 54 56 57 59 62 64 66 65 65 64 62 61 58 56 54 52 47 45 45 43 41 38 35 32 30 28 26 25 24
42 41 40 39 39 39 40 41 43 44 44 45 47 49 50 50 52 53 56 58 61 63 64 66 65 63 60 57 54 52 52 49 44 43 41 39 36 34 31 30 28 26 25
38 37 36 34 32 32 32 34 37 40 40 41 42 44 45 46 47 48 50 53 55 58 61 63 64 64 61 59 57 55 52 49 45 43 42 40 38 35 33 31 29 27 26
36 34 32 29 27 25 25 27 29 32 35 36 38 39 41 43 43 44 44 46 48 50 54 57 59 61 61 59 57 55 53 50 47 44 42 40 38 36 33 31 29 28 27
Wind_Direction
294 293 294 294 289 285 281 278 276 271 266 265 263 260 257 257 258 257 256 253 251 247 248 250 250 248 249 249 247 247 247 245 246 245 244 246 246 245 244 242 242 242 243
293 290 289 290 289 286 282 277 277 271 267 265 260 258 256 255 257 257 254 250 249 246 246 249 251 248 247 246 246 246 246 246 246 248 247 245 246 245 245 244 244 243 243
292 291 289 288 288 285 283 278 276 270 266 263 258 256 254 253 253 254 253 249 248 247 245 247 250 248 246 245 245 245 244 246 246 247 247 246 247 246 245 245 245 245 244
291 290 288 288 285 282 280 279 276 271 266 261 256 253 253 252 250 251 251 249 247 245 244 245 246 248 245 244 243 243 244 245 245 246 247 248 248 247 247 246 245 245 244
289 289 288 287 285 280 278 278 277 272 265 259 254 251 251 251 250 250 250 246 245 243 242 242 243 245 243 241 239 241 242 242 244 245 247 248 247 247 246 246 245 245 244
287 287 287 285 282 280 276 275 274 270 264 258 252 249 251 251 251 248 246 244 244 242 240 239 239 240 239 237 237 238 239 240 241 244 246 247 246 247 248 248 246 245 244
286 286 284 284 281 277 273 272 271 268 264 258 251 249 249 250 249 245 243 241 240 239 238 236 235 235 234 233 231 232 235 238 240 244 246 247 246 248 248 249 247 246 244
284 283 281 281 280 277 273 270 267 265 262 256 251 249 249 249 247 244 240 239 237 237 235 232 231 231 230 228 227 228 231 236 240 242 247 249 248 250 251 251 249 248 248
283 282 281 278 278 277 272 266 262 261 261 256 251 249 247 248 247 241 239 237 236 235 233 230 228 228 227 225 225 228 230 234 238 241 245 249 250 250 254 255 252 252 252
283 281 279 276 275 275 271 265 261 260 258 254 251 248 247 247 244 240 237 234 235 234 232 229 226 226 225 224 224 227 229 232 235 238 242 247 251 253 257 260 258 256 256
284 282 279 276 273 272 270 265 262 258 255 252 249 248 248 244 241 237 236 233 233 232 231 229 226 225 224 224 225 227 229 231 234 236 240 246 251 256 262 266 265 262 260
285 282 279 276 273 270 268 266 263 258 255 251 249 246 246 244 241 238 236 234 233 231 230 229 228 226 225 224 225 227 228 229 232 236 240 246 252 258 266 271 272 271 267
286 283 280 277 273 269 267 265 262 259 255 252 249 245 244 243 242 240 237 235 235 233 231 229 229 228 227 225 225 226 227 229 232 236 241 246 252 258 266 274 277 276 274
287 284 281 278 274 269 267 265 261 258 254 252 249 246 243 242 242 240 238 237 236 235 232 231 230 229 228 227 226 226 228 230 232 236 240 244 250 256 263 272 278 280 279
285 283 281 279 275 270 266 264 261 258 256 253 249 245 243 241 241 240 239 238 237 235 233 232 232 230 230 229 228 228 229 230 233 235 239 244 249 255 262 269 277 282 282
284 282 280 278 275 272 268 265 262 259 256 254 250 246 243 241 241 240 239 238 237 235 233 232 231 230 231 230 229 228 229 230 233 235 238 243 248 255 261 268 275 281 283
283 280 278 276 274 271 268 265 261 259 256 253 251 247 245 242 240 240 239 237 235 235 234 233 233 232 231 230 229 229 229 230 232 235 238 242 247 253 259 266 272 278 281
284 280 277 275 272 270 268 265 262 259 256 253 250 247 245 242 241 239 238 237 236 234 233 233 233 232 232 231 229 229 229 230 232 234 237 240 245 251 257 263 270 275 278
286 282 279 275 272 269 267 264 261 259 256 253 250 247 244 242 241 239 238 238 237 235 233 233 232 231 232 233 230 230 230 230 231 233 235 239 243 249 255 261 268 273 276
289 285 281 277 273 269 266 263 260 257 254 251 249 246 244 242 240 239 238 237 236 235 233 232 233 232 232 234 233 232 231 230 231 232 234 237 242 247 254 260 265 270 274
294 289 284 279 274 269 265 261 258 255 252 250 248 245 243 241 240 239 238 237 236 236 234 232 232 232 232 233 235 234 233 231 231 232 234 237 240 246 252 258 263 267 271
297 293 288 282 276 271 266 261 256 253 250 247 245 244 242 240 239 238 238 237 236 235 235 233 232 232 233 233 234 235 234 232 232 232 233 236 239 243 249 254 259 264 268
302 298 293 287 280 272 265 259 254 252 249 246 243 242 241 239 238 237 237 236 236 235 235 234 233 231 233 234 235 234 232 232 232 232 233 235 237 242 247 251 256 260 265
307 302 297 291 284 275 266 258 252 248 246 243 240 239 238 238 237 236 236 236 235 235 235 235 234 232 231 231 231 233 234 233 233 232 232 234 237 241 244 249 253 257 262
313 309 304 297 289 279 269 259 251 244 240 238 236 235 235 235 235 235 234 235 235 235 234 235 235 234 231 230 230 230 231 231 232 232 232 234 236 238 242 246 250 254 258
319 315 310 303 294 282 272 261 250 241 235 233 231 231 231 231 231 232 232 233 234 235 234 233 233 234 233 230 230 230 230 232 233 232 232 233 233 234 239 243 247 251 255
Height
5860 5858 5857 5855 5854 5854 5854 5854 5854 5855 5856 5857 5858 5860 5861 5863 5865 5866 5867 5868 5868 5870 5874 5875 5877 5879 5880 5882 5884 5886 5888 5890 5892 5893 5895 5897 5899 5901 5903 5905 5906 5908 5910
5852 5851 5849 5848 5847 5846 5845 5846 5846 5846 5848 5849 5851 5853 5855 5856 5858 5860 5862 5863 5864 5866 5869 5871 5872 5874 5876 5878 5880 5882 5884 5886 5888 5890 5892 5894 5896 5898 5900 5902 5904 5905 5907
5844 5843 5842 5841 5839 5837 5837 5837 5838 5838 5839 5841 5843 5846 5848 5850 5852 5854 5856 5858 5859 5861 5864 5866 5867 5869 5872 5874 5876 5878 5879 5881 5883 5886 5888 5890 5892 5894 5896 5898 5900 5902 5904
5836 5834 5833 5832 5831 5830 5830 5829 5830 5830 5831 5833 5835 5838 5840 5844 5846 5848 5850 5852 5854 5856 5859 5861 5863 5865 5867 5869 5871 5873 5875 5877 5879 5881 5884 5886 5887 5890 5892 5894 5896 5898 5900
5827 5826 5825 5824 5822 5822 5821 5821 5822 5822 5823 5825 5827 5830 5833 5836 5839 5842 5844 5846 5849 5851 5854 5856 5858 5860 5862 5864 5867 5869 5871 5873 5875 5877 5879 5881 5883 5885 5887 5889 5892 5894 5896
5819 5817 5816 5815 5814 5813 5813 5813 5813 5814 5815 5817 5819 5823 5826 5829 5832 5835 5838 5840 5843 5846 5849 5851 5853 5856 5858 5860 5862 5865 5867 5869 5871 5873 5875 5876 5878 5880 5882 5885 5887 5889 5892
5810 5809 5807 5806 5805 5804 5804 5804 5805 5806 5807 5809 5812 5815 5818 5821 5825 5828 5831 5834 5837 5840 5843 5846 5849 5851 5853 5856 5858 5860 5863 5865 5867 5868 5870 5872 5874 5876 5878 5880 5882 5884 5886
5801 5800 5799 5797 5796 5796 5796 5796 5797 5798 5800 5802 5805 5807 5810 5814 5817 5820 5824 5827 5831 5834 5838 5841 5844 5846 5849 5852 5854 5856 5859 5861 5863 5864 5866 5868 5869 5871 5873 5875 5877 5879 5881
5792 5791 5790 5789 5788 5787 5788 5788 5789 5790 5792 5795 5797 5800 5803 5806 5810 5813 5817 5820 5824 5828 5831 5835 5838 5841 5844 5847 5850 5852 5855 5857 5859 5861 5862 5864 5865 5867 5868 5870 5872 5874 5876
5782 5781 5780 5779 5779 5778 5779 5779 5780 5782 5784 5786 5789 5792 5795 5798 5802 5806 5810 5814 5817 5821 5825 5828 5832 5836 5839 5842 5845 5848 5850 5853 5855 5857 5859 5860 5861 5863 5864 5866 5867 5869 5870
5771 5770 5769 5769 5769 5768 5768 5770 5771 5772 5774 5777 5780 5783 5786 5790 5794 5798 5802 5806 5810 5814 5818 5822 5826 5830 5834 5837 5840 5843 5846 5849 5851 5853 5855 5856 5858 5859 5861 5861 5862 5864 5865
5759 5758 5757 5757 5758 5757 5757 5759 5761 5762 5764 5767 5771 5774 5777 5781 5785 5789 5794 5798 5802 5806 5810 5815 5819 5823 5827 5831 5835 5838 5841 5844 5847 5849 5851 5852 5854 5855 5856 5857 5858 5859 5860
5746 5745 5744 5744 5745 5745 5746 5747 5749 5751 5754 5757 5760 5764 5767 5772 5776 5780 5785 5789 5793 5798 5803 5807 5812 5816 5821 5825 5828 5832 5835 5838 5841 5844 5846 5848 5850 5851 5852 5853 5854 5854 5855
5733 5731 5731 5731 5732 5733 5733 5734 5736 5738 5741 5744 5748 5752 5756 5761 5766 5770 5775 5780 5785 5790 5795 5800 5804 5808 5813 5817 5821 5825 5829 5832 5836 5839 5841 5843 5845 5847 5847 5848 5849 5850 5850
5721 5719 5717 5717 5718 5719 5720 5721 5722 5724 5727 5731 5735 5739 5744 5749 5754 5759 5764 5769 5775 5780 5785 5790 5795 5800 5805 5809 5813 5818 5822 5826 5829 5833 5836 5838 5840 5842 5843 5844 5844 5845 5845
5708 5706 5704 5703 5703 5703 5705 5706 5708 5710 5713 5716 5720 5725 5730 5736 5741 5747 5752 5758 5763 5769 5775 5781 5786 5791 5795 5800 5805 5810 5814 5819 5823 5826 5829 5832 5835 5836 5838 5839 5839 5839 5839
5694 5691 5689 5687 5687 5687 5688 5689 5691 5694 5697 5700 5705 5709 5715 5720 5726 5732 5739 5745 5751 5757 5764 5770 5775 5781 5785 5790 5796 5801 5806 5811 5815 5819 5823 5826 5829 5831 5832 5833 5834 5834 5834
5677 5674 5672 5670 5669 5669 5669 5671 5673 5676 5679 5683 5688 5693 5699 5705 5711 5717 5724 5731 5738 5745 5751 5758 5764 5770 5775 5780 5786 5792 5798 5803 5807 5812 5816 5819 5822 5824 5826 5827 5828 5829 5828
5660 5656 5653 5651 5650 5650 5650 5651 5653 5657 5660 5665 5670 5675 5681 5688 5695 5701 5709 5716 5724 5731 5738 5746 5753 5759 5764 5769 5776 5782 5788 5794 5799 5804 5808 5812 5815 5818 5820 5821 5822 5823 5823
5641 5637 5634 5631 5630 5629 5630 5631 5633 5636 5641 5646 5651 5657 5663 5670 5677 5684 5692 5700 5709 5716 5724 5732 5740 5747 5754 5759 5766 5772 5779 5785 5790 5796 5800 5804 5808 5811 5813 5815 5816 5817 5817
5623 5618 5613 5610 5609 5608 5609 5610 5613 5616 5621 5626 5632 5638 5644 5651 5659 5667 5675 5684 5692 5701 5710 5718 5727 5734 5742 5748 5756 5762 5768 5775 5781 5787 5792 5797 5801 5804 5806 5808 5809 5811 5811
5606 5600 5595 5591 5589 5588 5589 5590 5593 5597 5601 5607 5613 5620 5626 5633 5641 5649 5658 5667 5676 5685 5695 5704 5713 5721 5730 5737 5744 5750 5758 5765 5772 5778 5783 5788 5793 5796 5799 5801 5803 5804 5805
5590 5583 5577 5573 5570 5569 5569 5571 5574 5578 5584 5590 5596 5602 5609 5617 5625 5633 5641 5650 5660 5669 5679 5689 5698 5708 5717 5726 5733 5740 5747 5754 5761 5768 5774 5780 5785 5789 5792 5794 5796 5798 5799
5576 5568 5562 5557 5554 5552 5552 5554 5558 5562 5568 5575 5581 5587 5594 5601 5610 5618 5626 5634 5642 5653 5664 5674 5685 5694 5703 5712 5721 5729 5736 5743 5751 5758 5765 5771 5776 5781 5784 5787 5790 5791 5793
5564 5556 5550 5545 5541 5539 5538 5540 5543 5548 5555 5561 5567 5574 5581 5589 5597 5605 5613 5621 5629 5637 5646 5657 5668 5678 5688 5698 5708 5716 5725 5733 5742 5749 5756 5762 5768 5772 5776 5780 5782 5785 5786
5554 5547 5541 5535 5532 5529 5529 5530 5532 5537 5543 5550 5556 5563 5570 5578 5585 5593 5601 5609 5617 5624 5633 5643 5653 5664 5675 5685 5695 5705 5714 5723 5731 5739 5746 5753 5759 5764 5768 5772 5775 5778 5780